Tracking 18852 objects as of 23-Nov-2017
HD Live streaming from Space Station
objects crossing your sky now

BREEZE-M R/B

Track BREEZE-M R/B now!


NORAD ID: 27633
Int'l Code: 2002-062B
Perigee: 8,032.0 km
Apogee: 35,541.6 km
Inclination: 16.3 °
Period: 783.7 minutes
Semi major axis: 28157 km
RCS: 9.602 m2 (large)
Launch date: December 29, 2002
Source: Commonwealth of Independent States (former USSR) (CIS)
Launch site: TYURATAM MISSILE AND SPACE COMPLEX (TTMTR)

Note: This is a ROCKET BODY
aabbcc
Your satellite tracking list
Your tracking list is empty




NASA's NSSDC Master Catalog

Two Line Element Set (TLE):
1 27633U 02062B   17326.34686017 -.00000125 +00000-0 +00000-0 0  9994
2 27633 016.2737 303.2966 4884895 239.8975 333.4201 01.83740237100009
Source of the keplerian elements: AFSPC